This is the latest recevied weather packets stored in our database for station/object HB9FHL-13. If no packets are shown the sender has not sent any weather packets the latest 1 day(s).
| Time | Temp. | Humidity | Pressure | Rain* | Wind** | Luminosity | Snow |
|---|---|---|---|---|---|---|---|
| 1777996306 | 15.56° C | - | 1012.2 hPa | 0 mm | 2.24 m/s, 267° | - | - |
| 1777996007 | 14.44° C | - | 1009 hPa | 0 mm | 2.24 m/s, 252° | - | - |
| 1777995707 | 14.44° C | - | 1007 hPa | 0 mm | 3.13 m/s, 242° | - | - |
| 1777995405 | 13.89° C | - | 1008.6 hPa | 0 mm | 2.68 m/s, 238° | - | - |
| 1777995103 | 14.44° C | - | 1000.7 hPa | 0 mm | 2.68 m/s, 263° | - | - |
| 1777994803 | 14.44° C | - | 1007.7 hPa | 0 mm | 3.13 m/s, 245° | - | - |
| 1777994502 | 16.11° C | - | 1008 hPa | 0 mm | 3.13 m/s, 246° | - | - |
| 1777994204 | 15° C | - | 1005.8 hPa | 0 mm | 3.13 m/s, 262° | - | - |
| 1777993901 | 15° C | - | 1008.9 hPa | 0 mm | 3.13 m/s, 242° | - | - |
| 1777993600 | 15° C | - | 1002.2 hPa | 0 mm | 2.24 m/s, 228° | - | - |
| 1777993298 | 15.56° C | - | 999.8 hPa | 0 mm | 1.34 m/s, 346° | - | - |
| 1777992998 | 15° C | - | 1005.4 hPa | 0 mm | 1.79 m/s, 328° | - | - |
| 1777992697 | 15.56° C | - | 1008.5 hPa | 0 mm | 1.79 m/s, 245° | - | - |
| 1777992397 | 16.67° C | - | 1007.6 hPa | 0 mm | 2.24 m/s, 290° | - | - |
| 1777992096 | 16.11° C | - | 1012.5 hPa | 0 mm | 2.24 m/s, 245° | - | - |
| 1777991795 | 16.11° C | - | 1009.5 hPa | 0 mm | 2.24 m/s, 259° | - | - |
| 1777991494 | 15.56° C | - | 1007.5 hPa | 0 mm | 2.68 m/s, 248° | - | - |
| 1777991193 | 15.56° C | - | 1014.2 hPa | 0 mm | 1.79 m/s, 263° | - | - |
| 1777990891 | 15.56° C | - | 1002.7 hPa | 0 mm | 1.79 m/s, 323° | - | - |
| 1777990590 | 16.11° C | - | 1007.6 hPa | 0 mm | 1.34 m/s, 246° | - | - |
| 1777990290 | 15.56° C | - | 1008.6 hPa | 0 mm | 0.45 m/s, 311° | - | - |
| 1777989989 | 15° C | - | 1005.6 hPa | 0 mm | 1.34 m/s, 35° | - | - |
| 1777989689 | 15.56° C | - | 1005 hPa | 0 mm | 0.45 m/s, 39° | - | - |
| 1777989388 | 15° C | - | 1007 hPa | 0 mm | 1.79 m/s, 17° | - | - |
| 1777989088 | 15° C | - | 1004.4 hPa | 0 mm | 2.24 m/s, 11° | - | - |
* Rain since midnight (hover to see other rain measurements)
** Current wind speed in m/s (hover to see current wind gust speed)